Vertical_Velocity
-1 4 -1 7 1 1 1 -1 -1 3 2 -3 -2 -1 -2 -3 -3 -2 -0 -1 -1 1 0 -1 0 1 -3 2 1 4 1 2 2 2 2 -1 -1 1 -0 -1 0 -1 2
3 1 5 -1 6 -3 -1 -1 -3 4 1 2 3 4 0 -3 -1 0 -0 1 1 0 1 0 3 1 1 0 0 2 -0 2 3 1 1 -1 -5 -3 3 0 0 1 4
-6 1 -0 2 3 6 -2 -2 -3 -3 0 4 3 4 3 4 0 -2 2 -0 4 3 2 1 2 4 0 -3 3 5 2 -0 4 1 4 -1 -9 -1 -2 0 3 3 -2
2 0 -1 -2 -0 -0 3 -0 1 1 1 3 5 2 -3 1 0 2 5 6 -1 0 1 -1 2 1 3 -3 1 5 0 3 -1 7 1 3 -1 -3 -6 -3 1 -0 1
-1 -3 -5 -0 6 6 4 3 2 2 1 -1 -1 2 -1 2 3 4 3 3 5 4 1 4 3 -0 2 2 2 1 4 4 9 2 5 8 3 1 5 -6 -6 4 3
2 5 3 1 2 5 5 3 2 3 2 -0 -1 -1 -2 0 1 0 -2 2 3 2 2 3 1 1 3 1 2 4 3 7 2 5 -2 4 -3 -6 -0 -0 -5 -7 -10
4 1 -1 -2 -1 -2 -1 3 5 4 2 1 -1 -2 -2 -0 -2 -0 -0 -2 1 -1 -1 -2 -5 -3 -1 -3 -1 1 5 1 -2 -0 1 5 2 11 7 7 -0 0 -1
5 2 -0 -1 -1 -1 -2 -2 -0 2 2 0 3 3 0 1 2 1 -1 -2 -4 -4 0 -0 -2 -1 0 -4 1 2 3 4 6 4 6 4 3 -1 8 14 9 1 -2
1 -0 -0 0 -0 -0 -0 -1 -1 -0 0 0 -1 -1 3 1 -1 -1 1 1 1 0 0 1 3 2 4 -1 -1 -3 -2 -1 1 -0 1 0 0 6 3 -1 5 10 4
2 1 1 1 1 1 0 -1 -2 -1 -1 0 0 0 -1 -0 2 2 -0 1 0 1 2 2 2 4 2 2 1 -1 -3 2 0 -0 2 2 1 2 -2 3 4 5 4
1 0 1 1 1 -1 -0 1 -1 1 0 -1 -1 -0 -0 0 -0 1 2 1 2 1 1 1 2 3 4 3 2 3 0 2 0 -0 0 1 -0 -2 -1 1 1 0 3
-1 1 1 -0 1 -0 -1 -2 -1 -1 -1 -1 -1 -0 0 1 1 1 1 1 1 1 3 2 1 1 1 0 1 -2 -2 -1 -0 0 1 1 1 1 -1 -1 -2 -2 -4
0 -2 -1 -2 -1 -1 -1 -1 -1 -2 -2 -1 -2 -1 0 0 -1 -0 1 1 1 1 0 1 1 1 0 0 -1 -3 -2 -1 -0 0 -0 1 -0 -1 -1 -2 0 -1 1
-2 -1 -0 0 -0 -1 -1 0 -2 -2 -1 -0 -1 -1 -1 -0 0 -0 1 -1 0 -2 0 -0 -1 -2 -2 -2 -2 -3 -1 -0 1 -1 -1 -2 -1 -1 -3 0 0 -3 -2
-0 -2 -2 -1 -1 -1 -1 -1 -1 -0 -1 -1 -0 -1 -1 -2 -1 -0 -0 0 -0 -1 1 -2 -1 -1 1 1 -0 0 -1 -1 -1 2 -1 -1 -1 -1 0 1 -1 -1 0
0 1 2 1 -0 -1 -1 -0 0 0 1 -1 -1 -2 -0 -1 1 1 -0 1 2 -0 1 2 1 3 -1 -1 -1 0 -0 -0 -1 -3 -1 -1 -1 -1 -0 -1 -2 -2 -2
-3 -3 -2 -0 -0 -0 0 0 -0 -1 -1 -2 1 -1 -1 -1 2 -1 -0 2 1 1 -0 1 0 -2 1 -1 -1 -1 0 -2 -1 -2 1 1 -1 -2 -0 -1 -1 -1 -1
-0 -1 -0 0 0 0 -0 -1 1 -0 -1 -1 1 0 -1 1 -1 1 2 -2 0 0 1 -2 0 0 -3 0 -0 -1 -1 -1 -1 0 -0 -0 -1 -1 -1 -1 -0 -1 -1
-0 4 4 1 -0 0 -0 -1 -0 3 -0 0 -0 -0 1 -0 -0 0 -0 1 2 -1 -2 2 -2 -1 -2 -0 -2 2 1 -2 -0 2 -1 -2 -2 -2 -1 -1 -0 -1 -2
-0 -0 1 -1 -0 -0 0 0 -2 -0 -1 -2 -1 0 0 -0 0 2 -1 -1 -2 -1 2 0 -0 -1 0 -1 2 -1 -1 -1 0 -1 -2 -1 -1 -2 -2 -1 -1 -1 -1
2 1 1 1 0 1 0 -0 -0 -0 2 1 -0 -0 1 0 0 1 -1 -2 -1 1 1 -0 -3 0 -0 1 -1 -0 -1 -0 -0 -1 -1 -0 -1 -1 -2 -3 -1 -1 -2
-0 -0 -0 -0 -0 -0 1 0 -0 0 1 2 -2 -1 -1 1 1 -0 -2 1 -1 1 -0 0 0 -1 -2 0 -0 -1 -1 -1 -0 -2 -1 0 -2 -2 -1 -0 -0 -1 -0
-0 1 1 1 1 1 1 2 1 -0 1 0 -1 -1 0 -0 0 1 -1 -1 0 2 2 1 -2 -1 -1 1 -0 -1 -2 -1 -1 -1 0 -1 -2 -2 -1 -1 -1 -1 -1
-1 1 0 0 0 1 1 2 1 2 -1 1 -1 1 1 -1 -0 -0 1 0 0 -0 -1 -1 -2 -1 -0 -0 -2 -1 -0 -0 -1 -1 0 -1 -1 -1 -0 -1 -1 0 1
0 -0 0 0 1 1 0 -1 -2 -1 2 3 1 -0 0 -0 -0 1 1 2 -1 0 3 1 -1 -1 -0 -1 -1 -0 -0 -1 -1 -1 -0 0 1 0 -0 -0 1 0 -0
-0 -0 0 -0 0 -0 -0 1 2 2 1 -0 -2 -2 -1 -2 0 1 -1 -3 -1 1 -0 -2 -1 -0 0 -0 -1 -1 -0 -2 -0 -0 0 0 -1 -1 -1 -1 -0 -0 -1
Height
1493 1496 1498 1501 1502 1504 1507 1511 1515 1519 1521 1523 1526 1529 1531 1534 1537 1538 1540 1541 1543 1545 1546 1548 1549 1550 1551 1552 1554 1556 1557 1557 1559 1560 1560 1559 1559 1558 1557 1557 1557 1557 1558
1489 1492 1495 1497 1499 1500 1502 1506 1511 1515 1517 1521 1523 1525 1529 1531 1533 1535 1536 1538 1540 1541 1543 1544 1545 1546 1547 1548 1550 1551 1552 1553 1555 1556 1556 1555 1555 1552 1552 1552 1552 1553 1553
1484 1487 1489 1492 1495 1498 1499 1502 1506 1510 1514 1517 1519 1522 1525 1527 1529 1530 1530 1534 1535 1537 1538 1540 1541 1542 1543 1545 1546 1547 1547 1548 1551 1551 1554 1551 1548 1546 1546 1546 1546 1547 1548
1480 1481 1483 1487 1491 1494 1497 1499 1502 1505 1508 1511 1514 1517 1519 1521 1523 1525 1527 1530 1531 1532 1534 1535 1535 1536 1538 1539 1541 1542 1543 1543 1544 1546 1546 1545 1545 1544 1543 1542 1542 1543 1543
1476 1478 1480 1482 1484 1489 1492 1495 1499 1501 1503 1506 1509 1512 1514 1517 1520 1522 1524 1524 1526 1527 1528 1529 1530 1531 1532 1533 1535 1536 1537 1537 1538 1538 1540 1540 1539 1539 1539 1536 1538 1538 1539
1471 1475 1478 1481 1483 1486 1489 1493 1496 1497 1499 1502 1505 1507 1509 1511 1513 1515 1516 1518 1520 1521 1522 1523 1523 1525 1526 1527 1528 1530 1530 1530 1531 1531 1533 1533 1533 1532 1533 1532 1531 1532 1532
1465 1469 1474 1478 1482 1486 1489 1492 1494 1495 1496 1498 1500 1503 1504 1506 1507 1508 1510 1511 1513 1514 1516 1517 1519 1520 1521 1521 1522 1522 1522 1524 1524 1524 1525 1526 1525 1526 1525 1525 1523 1522 1523
1460 1465 1470 1475 1479 1483 1486 1488 1490 1491 1492 1494 1495 1497 1498 1500 1501 1502 1504 1505 1507 1508 1510 1511 1513 1514 1516 1516 1516 1517 1517 1517 1517 1517 1519 1519 1519 1520 1520 1519 1518 1516 1517
1459 1463 1468 1471 1474 1477 1480 1482 1485 1486 1488 1490 1490 1492 1492 1493 1495 1496 1497 1499 1501 1502 1503 1505 1507 1508 1509 1510 1510 1511 1511 1511 1511 1512 1512 1513 1512 1512 1512 1512 1512 1512 1510
1458 1462 1466 1468 1471 1474 1477 1479 1482 1484 1485 1486 1487 1488 1488 1489 1490 1490 1491 1492 1494 1495 1497 1499 1501 1502 1503 1504 1503 1505 1506 1506 1506 1506 1506 1507 1507 1507 1507 1506 1506 1506 1506
1457 1461 1464 1467 1470 1473 1476 1478 1480 1481 1482 1482 1483 1484 1484 1484 1485 1486 1486 1487 1489 1490 1491 1492 1494 1495 1496 1496 1497 1498 1500 1500 1500 1500 1500 1501 1501 1501 1501 1501 1501 1502 1503
1458 1461 1464 1466 1468 1471 1473 1475 1478 1478 1479 1479 1480 1480 1480 1480 1479 1480 1481 1482 1483 1485 1485 1486 1487 1489 1489 1489 1490 1492 1494 1495 1496 1496 1496 1496 1497 1497 1497 1498 1498 1498 1499
1458 1461 1464 1466 1469 1471 1472 1474 1475 1476 1477 1477 1477 1477 1476 1475 1475 1476 1476 1477 1478 1479 1480 1481 1482 1483 1483 1484 1485 1487 1490 1491 1492 1492 1493 1493 1493 1493 1494 1494 1494 1495 1496
1457 1460 1463 1465 1468 1470 1471 1473 1473 1475 1475 1474 1474 1474 1473 1473 1472 1473 1474 1474 1476 1476 1477 1477 1478 1478 1480 1482 1482 1485 1487 1488 1488 1489 1490 1490 1491 1492 1492 1492 1492 1494 1495
1456 1458 1461 1463 1466 1468 1469 1471 1472 1473 1473 1472 1472 1472 1471 1471 1472 1472 1473 1473 1474 1475 1475 1476 1478 1478 1480 1480 1482 1484 1485 1486 1486 1486 1488 1489 1489 1490 1491 1491 1491 1492 1493
1454 1456 1459 1461 1463 1465 1468 1469 1470 1471 1470 1471 1471 1471 1471 1471 1472 1471 1472 1473 1473 1474 1475 1476 1477 1478 1479 1480 1482 1484 1484 1484 1485 1486 1486 1486 1487 1489 1489 1489 1489 1490 1491
1452 1453 1455 1458 1461 1463 1465 1466 1467 1468 1469 1469 1470 1470 1470 1470 1470 1470 1472 1472 1473 1474 1475 1476 1478 1479 1479 1480 1482 1483 1483 1484 1484 1486 1487 1487 1487 1488 1488 1488 1488 1488 1488
1448 1450 1453 1456 1459 1460 1462 1464 1465 1466 1467 1467 1468 1468 1469 1470 1470 1472 1472 1473 1474 1475 1476 1477 1478 1479 1480 1481 1483 1483 1484 1485 1486 1486 1487 1487 1487 1487 1487 1487 1487 1486 1486
1444 1446 1450 1454 1456 1458 1460 1462 1463 1464 1465 1466 1466 1468 1468 1469 1471 1472 1472 1473 1474 1475 1477 1478 1480 1481 1482 1483 1484 1485 1485 1486 1487 1487 1486 1486 1486 1486 1486 1485 1484 1483 1483
1443 1445 1449 1452 1454 1455 1457 1459 1461 1462 1463 1465 1466 1467 1467 1469 1471 1472 1472 1473 1475 1476 1478 1479 1480 1482 1484 1484 1485 1486 1485 1487 1487 1486 1486 1485 1485 1484 1483 1483 1481 1480 1480
1444 1446 1448 1450 1452 1453 1455 1457 1458 1460 1461 1463 1465 1465 1467 1468 1470 1471 1472 1474 1476 1477 1478 1480 1482 1483 1484 1485 1485 1486 1487 1487 1487 1486 1485 1484 1482 1482 1481 1479 1478 1477 1477
1443 1445 1446 1448 1449 1451 1452 1454 1456 1458 1459 1461 1463 1464 1465 1467 1468 1471 1472 1474 1477 1478 1480 1481 1482 1483 1484 1485 1485 1486 1487 1486 1486 1484 1484 1482 1480 1479 1478 1476 1475 1474 1474
1441 1443 1445 1446 1447 1448 1450 1451 1453 1456 1457 1458 1460 1462 1464 1466 1468 1470 1472 1474 1477 1479 1480 1480 1482 1483 1484 1485 1485 1486 1486 1486 1484 1483 1481 1480 1478 1476 1475 1474 1473 1472 1472
1439 1441 1442 1443 1444 1445 1447 1449 1451 1452 1454 1455 1457 1460 1462 1465 1468 1470 1473 1475 1477 1478 1479 1480 1482 1483 1484 1485 1485 1485 1484 1483 1481 1480 1479 1476 1474 1473 1472 1470 1470 1469 1469
1437 1439 1440 1441 1441 1442 1444 1445 1447 1449 1451 1453 1455 1458 1461 1464 1467 1470 1472 1475 1476 1478 1480 1481 1482 1483 1483 1484 1484 1483 1482 1480 1479 1477 1475 1474 1472 1471 1469 1468 1468 1467 1467
1436 1436 1437 1438 1439 1439 1441 1442 1444 1446 1448 1451 1453 1457 1460 1463 1466 1468 1470 1472 1474 1476 1478 1479 1480 1481 1482 1482 1481 1480 1478 1477 1476 1474 1472 1471 1469 1468 1467 1466 1465 1465 1464